Location: Unspecified
(64.9000°N, 0.0000°E)
Time: 21:27:06
(UTC+00:00)

Transit 2A Rocket - Pass Details

Date: 18 June 2019
Orbit: 588 x 915 km, 66.7° (Epoch: 16 July)

Event Time Altitude Azimuth Distance (km) Brightness Sun altitude
Rises 15:04:43 0° 266° (W) 3,522 9.1 39.1°
Reaches altitude 10° 15:07:18 10° 268° (W) 2,555 8.6 38.9°
Maximum altitude 15:13:16 75° 354° (N) 878 5.9 38.3°
Drops below altitude 10° 15:18:46 10° 81° (E) 2,365 7.2 37.8°
Sets 15:21:05 0° 83° (E) 3,244 7.8 37.6°
